This is the latest recevied weather packets stored in our database for station/object EA7AIS-10. If no packets are shown the sender has not sent any weather packets the latest 10 day(s).
| Time | Temp. | Humidity | Pressure | Rain* | Wind** | Luminosity | Snow |
|---|---|---|---|---|---|---|---|
| 1777545960 | 23.33° C | 44% | 1013.7 hPa | - | - | - | - |
| 1777545060 | 23.33° C | 43% | 1013.6 hPa | - | - | - | - |
| 1777544160 | 23.33° C | 44% | 1013.7 hPa | - | - | - | - |
| 1777543260 | 22.78° C | 49% | 1013.6 hPa | - | - | - | - |
| 1777542360 | 22.78° C | 50% | 1013.6 hPa | - | - | - | - |
| 1777540560 | 23.89° C | 49% | 1013.5 hPa | - | - | - | - |
| 1777539659 | 25.56° C | 46% | 1013.5 hPa | - | - | - | - |
| 1777538759 | 25.56° C | 43% | 1013.4 hPa | - | - | - | - |
| 1777537859 | 26.67° C | 41% | 1013.4 hPa | - | - | - | - |
| 1777536959 | 28.33° C | 39% | 1013.3 hPa | - | - | - | - |
| 1777535159 | 26.67° C | 42% | 1013.3 hPa | - | - | - | - |
| 1777534259 | 26.11° C | 45% | 1013.2 hPa | - | - | - | - |
| 1777533359 | 23.89° C | 51% | 1013.2 hPa | - | - | - | - |
| 1777529759 | 15° C | 82% | 1013.1 hPa | - | - | - | - |
| 1777528859 | 13.33° C | 86% | 1013.1 hPa | - | - | - | - |
| 1777527959 | 13.33° C | 87% | 1013 hPa | - | - | - | - |
| 1777527059 | 13.33° C | 88% | 1012.9 hPa | - | - | - | - |
| 1777526159 | 13.89° C | 89% | 1012.9 hPa | - | - | - | - |
| 1777524359 | 13.89° C | 87% | 1012.8 hPa | - | - | - | - |
| 1777523459 | 13.89° C | 88% | 1012.9 hPa | - | - | - | - |
| 1777522559 | 13.89° C | 88% | 1012.9 hPa | - | - | - | - |
| 1777521658 | 14.44° C | 88% | 1012.8 hPa | - | - | - | - |
| 1777520758 | 14.44° C | 88% | 1012.8 hPa | - | - | - | - |
| 1777518958 | 13.89° C | 88% | 1012.7 hPa | - | - | - | - |
| 1777518058 | 14.44° C | 85% | 1012.6 hPa | - | - | - | - |
* Rain since midnight (hover to see other rain measurements)
** Current wind speed in m/s (hover to see current wind gust speed)